Terug naar catalogus

STARLINK-32421

ActiefCommunicatieVLEO
NORAD 61628·PAYLOAD·🇺🇸 United States

Gelanceerd Oct 23, 2024 vanaf Cape Canaveral Space Force Station

Loading…

Volgende Passages (komende 24 uur)

TLE

VersSource: CelesTrak SupGP

Epoch: Sep 15, 2026, 03:15 UTC

1 61628C 24191H   26258.13590278  .00033894  00000+0  12277-2 0  2583
2 61628  42.9996 164.7257 0001462 277.7903 254.2689 15.27559086    19

Volg STARLINK-32421 in realtime met AllMySat

Download on the App Store